AVA693 KDEN-KATL

Flight info

Callsign AVA693
Flight time 2h 19m
Altitude 39000
Route EPKEE7 GAETR KIRKE LUKKY HUTCC KNSAW RUSSA GLAVN2
Aircraft A319/M-SDE3FGHIRWY/LB1

Departure

Time 2026-05-08 04:14
Airport Denver International Airport (KDEN)

Arrival

Time 2026-05-08 06:34
Airport Hartsfield Jackson Atlanta International Airport (KATL)
Time Latitude Longitude Altitude Speed Heading
2026-05-08 03:49 39.85804 -104.66955 5387 ft 0 kts
2026-05-08 04:02 39.85797 -104.66955 5384 ft 2 kts
2026-05-08 04:03 39.85777 -104.66956 5385 ft 3 kts
2026-05-08 04:03 39.85736 -104.66957 5383 ft 3 kts
2026-05-08 04:03 39.85724 -104.66958 5384 ft 0 kts
2026-05-08 04:06 39.85728 -104.66968 5385 ft 2 kts 287°
2026-05-08 04:06 39.85730 -104.67003 5387 ft 6 kts 270°
2026-05-08 04:06 39.85730 -104.67066 5387 ft 8 kts 271°
2026-05-08 04:07 39.85731 -104.67153 5387 ft 11 kts 271°
2026-05-08 04:07 39.85732 -104.67261 5387 ft 13 kts 269°
2026-05-08 04:07 39.85733 -104.67390 5387 ft 15 kts 270°
2026-05-08 04:07 39.85733 -104.67539 5387 ft 17 kts 270°
2026-05-08 04:08 39.85735 -104.67671 5387 ft 14 kts 271°
2026-05-08 04:08 39.85737 -104.67801 5387 ft 14 kts 270°
2026-05-08 04:08 39.85736 -104.67933 5387 ft 15 kts 270°
2026-05-08 04:08 39.85691 -104.68039 5387 ft 14 kts 223°
2026-05-08 04:09 39.85675 -104.68162 5387 ft 14 kts 286°
2026-05-08 04:09 39.85687 -104.68299 5383 ft 17 kts 271°
2026-05-08 04:09 39.85604 -104.68404 5372 ft 20 kts 184°
2026-05-08 04:09 39.85492 -104.68405 5374 ft 15 kts 180°
2026-05-08 04:10 39.85375 -104.68405 5372 ft 18 kts 180°
2026-05-08 04:10 39.85245 -104.68412 5377 ft 15 kts 198°
2026-05-08 04:10 39.85206 -104.68548 5370 ft 21 kts 270°
2026-05-08 04:10 39.85202 -104.68763 5362 ft 27 kts 268°
2026-05-08 04:11 39.85199 -104.68962 5355 ft 15 kts 269°
2026-05-08 04:11 39.85197 -104.69125 5348 ft 21 kts 270°
2026-05-08 04:11 39.85200 -104.69287 5342 ft 11 kts 271°
2026-05-08 04:11 39.85202 -104.69410 5341 ft 15 kts 270°
2026-05-08 04:12 39.85202 -104.69459 5338 ft 0 kts 271°
2026-05-08 04:12 39.85203 -104.69492 5337 ft 7 kts 271°
2026-05-08 04:12 39.85204 -104.69579 5334 ft 11 kts 271°
2026-05-08 04:12 39.85249 -104.69658 5337 ft 13 kts 342°
2026-05-08 04:13 39.85371 -104.69658 5336 ft 33 kts
2026-05-08 04:13 39.85765 -104.69650 5340 ft 82 kts
2026-05-08 04:13 39.86524 -104.69637 5330 ft 135 kts
2026-05-08 04:13 39.87617 -104.69627 5394 ft 175 kts
2026-05-08 04:14 39.88860 -104.69494 5957 ft 185 kts 25°
2026-05-08 04:14 39.89730 -104.68249 6552 ft 199 kts 71°
2026-05-08 04:14 39.89654 -104.66437 7086 ft 210 kts 110°
2026-05-08 04:14 39.89070 -104.64590 7461 ft 232 kts 114°
2026-05-08 04:15 39.88376 -104.62570 7872 ft 257 kts 114°
2026-05-08 04:15 39.87616 -104.60343 8393 ft 282 kts 113°
2026-05-08 04:15 39.86823 -104.57951 9040 ft 299 kts 112°
2026-05-08 04:15 39.86104 -104.55367 9920 ft 307 kts 104°
2026-05-08 04:16 39.85535 -104.52619 10524 ft 326 kts 103°
2026-05-08 04:16 39.84960 -104.49674 11034 ft 343 kts 102°
2026-05-08 04:16 39.84378 -104.46629 11798 ft 351 kts 102°
2026-05-08 04:16 39.83785 -104.43518 12623 ft 357 kts 102°
2026-05-08 04:17 39.83180 -104.40370 13432 ft 362 kts 102°
2026-05-08 04:17 39.82555 -104.37164 14207 ft 368 kts 102°
2026-05-08 04:17 39.81925 -104.33965 14922 ft 373 kts 102°
2026-05-08 04:17 39.81265 -104.30630 15655 ft 377 kts 102°
2026-05-08 04:18 39.80609 -104.27309 16373 ft 382 kts 103°
2026-05-08 04:18 39.79943 -104.23944 17074 ft 387 kts 103°
2026-05-08 04:18 39.79267 -104.20534 17795 ft 391 kts 103°
2026-05-08 04:18 39.78587 -104.17112 18473 ft 396 kts 103°
2026-05-08 04:19 39.77900 -104.13658 19092 ft 400 kts 103°
2026-05-08 04:19 39.77197 -104.10140 19721 ft 404 kts 103°
2026-05-08 04:19 39.76489 -104.06593 20357 ft 408 kts 103°
2026-05-08 04:19 39.75773 -104.03011 20991 ft 412 kts 104°
2026-05-08 04:20 39.75050 -103.99396 21619 ft 415 kts 104°
2026-05-08 04:20 39.74318 -103.95749 22241 ft 419 kts 104°
2026-05-08 04:20 39.73575 -103.92064 22872 ft 423 kts 104°
2026-05-08 04:20 39.72826 -103.88354 23479 ft 427 kts 104°
2026-05-08 04:21 39.72067 -103.84602 24014 ft 431 kts 104°
2026-05-08 04:21 39.71314 -103.80878 24554 ft 434 kts 104°
2026-05-08 04:21 39.70546 -103.77076 25054 ft 437 kts 104°
2026-05-08 04:21 39.69771 -103.73244 25548 ft 441 kts 104°
2026-05-08 04:22 39.68990 -103.69379 26024 ft 444 kts 104°
2026-05-08 04:22 39.68203 -103.65487 26509 ft 448 kts 104°
2026-05-08 04:22 39.67406 -103.61552 26987 ft 452 kts 104°
2026-05-08 04:22 39.66600 -103.57600 27439 ft 455 kts 104°
2026-05-08 04:23 39.65781 -103.53609 27899 ft 459 kts 104°
2026-05-08 04:23 39.64951 -103.49591 28361 ft 463 kts 104°
2026-05-08 04:23 39.64112 -103.45538 28810 ft 467 kts 104°
2026-05-08 04:23 39.63266 -103.41448 29257 ft 471 kts 104°
2026-05-08 04:24 39.62415 -103.37320 29707 ft 475 kts 104°
2026-05-08 04:24 39.61572 -103.33223 30117 ft 479 kts 104°
2026-05-08 04:24 39.60710 -103.29032 30492 ft 482 kts 104°
2026-05-08 04:24 39.59841 -103.24826 30881 ft 485 kts 104°
2026-05-08 04:25 39.58960 -103.20588 31260 ft 488 kts 104°
2026-05-08 04:25 39.58071 -103.16335 31659 ft 490 kts 104°
2026-05-08 04:25 39.57178 -103.12082 32199 ft 489 kts 105°
2026-05-08 04:25 39.56285 -103.07832 32715 ft 488 kts 105°
2026-05-08 04:26 39.55391 -103.03589 33251 ft 488 kts 105°
2026-05-08 04:26 39.54501 -102.99359 33774 ft 487 kts 104°
2026-05-08 04:26 39.53613 -102.95126 34264 ft 486 kts 104°
2026-05-08 04:26 39.52739 -102.90963 34662 ft 486 kts 105°
2026-05-08 04:27 39.51850 -102.86742 35097 ft 485 kts 105°
2026-05-08 04:27 39.50962 -102.82531 35522 ft 485 kts 105°
2026-05-08 04:27 39.50071 -102.78325 35938 ft 484 kts 105°
2026-05-08 04:27 39.49179 -102.74124 36364 ft 483 kts 106°
2026-05-08 04:28 39.48287 -102.69934 36793 ft 483 kts 106°
2026-05-08 04:28 39.47394 -102.65749 37197 ft 482 kts 106°
2026-05-08 04:28 39.46500 -102.61568 37582 ft 482 kts 107°
2026-05-08 04:28 39.45605 -102.57389 37970 ft 482 kts 107°
2026-05-08 04:29 39.44725 -102.53270 38352 ft 481 kts 107°
2026-05-08 04:29 39.43832 -102.49102 38689 ft 481 kts 107°
2026-05-08 04:29 39.42935 -102.44931 38865 ft 482 kts 107°
2026-05-08 04:29 39.42033 -102.40741 38928 ft 484 kts 107°
2026-05-08 04:30 39.40203 -102.32323 38906 ft 487 kts 107°
2026-05-08 04:30 39.38359 -102.23891 38907 ft 488 kts 107°
2026-05-08 04:31 39.36525 -102.15439 38904 ft 489 kts 107°
2026-05-08 04:31 39.34678 -102.06991 38925 ft 489 kts 107°
2026-05-08 04:32 39.32831 -101.98600 38953 ft 489 kts 108°
2026-05-08 04:32 39.30967 -101.90158 38959 ft 489 kts 108°
2026-05-08 04:33 39.29094 -101.81700 38970 ft 490 kts 108°
2026-05-08 04:33 39.27214 -101.73248 38975 ft 490 kts 108°
2026-05-08 04:34 39.25334 -101.64804 38973 ft 490 kts 108°
2026-05-08 04:34 39.23456 -101.56401 38949 ft 491 kts 108°
2026-05-08 04:35 39.21548 -101.47936 38913 ft 491 kts 108°
2026-05-08 04:35 39.19634 -101.39473 38896 ft 492 kts 108°
2026-05-08 04:36 39.17721 -101.31006 38885 ft 492 kts 108°
2026-05-08 04:36 39.15792 -101.22528 38899 ft 493 kts 108°
2026-05-08 04:37 39.13859 -101.14040 38910 ft 494 kts 109°
2026-05-08 04:37 39.11929 -101.05600 38925 ft 495 kts 109°
2026-05-08 04:38 39.09979 -100.97113 38942 ft 495 kts 109°
2026-05-08 04:38 39.07905 -100.88657 38950 ft 494 kts 113°
2026-05-08 04:39 39.05131 -100.80629 38935 ft 489 kts 121°
2026-05-08 04:39 39.01935 -100.72931 38940 ft 488 kts 122°
2026-05-08 04:40 38.98790 -100.65253 38927 ft 489 kts 121°
2026-05-08 04:40 38.95761 -100.57421 38910 ft 489 kts 120°
2026-05-08 04:41 38.92778 -100.49554 38899 ft 490 kts 120°
2026-05-08 04:41 38.89775 -100.41732 38876 ft 490 kts 120°
2026-05-08 04:42 38.86736 -100.33900 38862 ft 490 kts 121°
2026-05-08 04:42 38.83690 -100.26091 38880 ft 489 kts 121°
2026-05-08 04:43 38.80647 -100.18308 38892 ft 489 kts 121°
2026-05-08 04:43 38.77594 -100.10515 38885 ft 489 kts 121°
2026-05-08 04:44 38.74559 -100.02770 38885 ft 489 kts 121°
2026-05-08 04:44 38.71494 -99.94980 38886 ft 490 kts 121°
2026-05-08 04:45 38.68428 -99.87206 38870 ft 490 kts 121°
2026-05-08 04:45 38.65348 -99.79426 38888 ft 490 kts 121°
2026-05-08 04:46 38.62288 -99.71685 38891 ft 491 kts 121°
2026-05-08 04:46 38.59201 -99.63898 38897 ft 491 kts 121°
2026-05-08 04:47 38.56107 -99.56135 38897 ft 491 kts 121°
2026-05-08 04:47 38.53000 -99.48370 38903 ft 491 kts 121°
2026-05-08 04:48 38.49889 -99.40609 38880 ft 491 kts 121°
2026-05-08 04:48 38.46774 -99.32843 38885 ft 492 kts 121°
2026-05-08 04:49 38.43659 -99.25076 38889 ft 493 kts 121°
2026-05-08 04:49 38.40546 -99.17349 38894 ft 493 kts 122°
2026-05-08 04:50 38.37398 -99.09574 38902 ft 494 kts 122°
2026-05-08 04:50 38.34243 -99.01796 38927 ft 494 kts 122°
2026-05-08 04:51 38.31087 -98.94023 38907 ft 495 kts 122°
2026-05-08 04:51 38.27923 -98.86256 38939 ft 493 kts 122°
2026-05-08 04:52 38.24754 -98.78515 38947 ft 493 kts 123°
2026-05-08 04:52 38.21614 -98.70841 38940 ft 492 kts 123°
2026-05-08 04:53 38.18463 -98.63141 38932 ft 491 kts 123°
2026-05-08 04:53 38.15300 -98.55451 38925 ft 491 kts 123°
2026-05-08 04:54 38.12134 -98.47775 38914 ft 490 kts 123°
2026-05-08 04:54 38.09041 -98.40069 38918 ft 494 kts 117°
2026-05-08 04:55 38.06875 -98.31738 38921 ft 498 kts 112°
2026-05-08 04:55 38.04791 -98.23412 38896 ft 499 kts 112°
2026-05-08 04:56 38.02678 -98.15026 38905 ft 499 kts 112°
2026-05-08 04:56 38.00555 -98.06637 38915 ft 500 kts 112°
2026-05-08 04:57 37.98425 -97.98256 38926 ft 500 kts 112°
2026-05-08 04:57 37.96292 -97.89858 38892 ft 501 kts 113°
2026-05-08 04:58 37.94149 -97.81447 38890 ft 502 kts 113°
2026-05-08 04:58 37.92014 -97.73099 38875 ft 502 kts 114°
2026-05-08 04:59 37.89845 -97.64678 38886 ft 503 kts 114°
2026-05-08 04:59 37.87665 -97.56241 38913 ft 504 kts 114°
2026-05-08 05:00 37.85483 -97.47795 38926 ft 505 kts 114°
2026-05-08 05:00 37.83305 -97.39396 38934 ft 506 kts 114°
2026-05-08 05:01 37.81106 -97.30931 38942 ft 507 kts 114°
2026-05-08 05:01 37.78892 -97.22467 38955 ft 507 kts 114°
2026-05-08 05:02 37.76670 -97.14006 38955 ft 507 kts 114°
2026-05-08 05:02 37.74440 -97.05537 38960 ft 508 kts 114°
2026-05-08 05:03 37.72209 -96.97073 38927 ft 508 kts 114°
2026-05-08 05:03 37.69984 -96.88654 38935 ft 509 kts 114°
2026-05-08 05:04 37.67736 -96.80179 38947 ft 510 kts 115°
2026-05-08 05:04 37.65471 -96.71689 38943 ft 511 kts 115°
2026-05-08 05:05 37.63193 -96.63195 38945 ft 511 kts 115°
2026-05-08 05:05 37.60909 -96.54691 38958 ft 512 kts 115°
2026-05-08 05:06 37.58631 -96.46203 38963 ft 512 kts 115°
2026-05-08 05:06 37.56349 -96.37761 38956 ft 513 kts 115°
2026-05-08 05:07 37.54035 -96.29229 38933 ft 514 kts 116°
2026-05-08 05:07 37.51726 -96.20702 38947 ft 514 kts 116°
2026-05-08 05:08 37.49402 -96.12186 38954 ft 514 kts 116°
2026-05-08 05:08 37.47069 -96.03667 38959 ft 515 kts 116°
2026-05-08 05:09 37.44749 -95.95195 38961 ft 516 kts 116°
2026-05-08 05:09 37.42405 -95.86658 38966 ft 517 kts 116°
2026-05-08 05:10 37.38858 -95.73853 38973 ft 517 kts 117°
2026-05-08 05:11 37.36482 -95.65314 38978 ft 518 kts 117°
2026-05-08 05:11 37.34098 -95.56751 38942 ft 520 kts 117°
2026-05-08 05:12 37.31697 -95.48156 38968 ft 523 kts 117°
2026-05-08 05:12 37.29301 -95.39606 38976 ft 523 kts 117°
2026-05-08 05:13 37.26880 -95.30993 38992 ft 523 kts 117°
2026-05-08 05:13 37.24449 -95.22379 38989 ft 524 kts 117°
2026-05-08 05:14 37.22004 -95.13755 38995 ft 525 kts 117°
2026-05-08 05:14 37.19557 -95.05132 38998 ft 525 kts 117°
2026-05-08 05:15 37.17119 -94.96569 39001 ft 525 kts 117°
2026-05-08 05:15 37.14652 -94.87943 39003 ft 526 kts 118°
2026-05-08 05:16 37.12171 -94.79297 38998 ft 528 kts 118°
2026-05-08 05:16 37.09684 -94.70631 39021 ft 529 kts 118°
2026-05-08 05:17 37.07194 -94.61987 39028 ft 528 kts 118°
2026-05-08 05:17 37.04709 -94.53397 39029 ft 529 kts 118°
2026-05-08 05:18 37.02191 -94.44728 39017 ft 529 kts 118°
2026-05-08 05:18 36.99672 -94.36080 39028 ft 529 kts 118°
2026-05-08 05:19 36.97144 -94.27432 39040 ft 530 kts 118°
2026-05-08 05:19 36.94625 -94.18836 39060 ft 530 kts 119°
2026-05-08 05:20 36.92086 -94.10200 38989 ft 531 kts 119°
2026-05-08 05:20 36.89535 -94.01524 39037 ft 532 kts 119°
2026-05-08 05:21 36.86977 -93.92860 39046 ft 532 kts 119°
2026-05-08 05:21 36.84409 -93.84208 39046 ft 531 kts 119°
2026-05-08 05:22 36.81844 -93.75610 39051 ft 532 kts 119°
2026-05-08 05:22 36.79254 -93.66951 39047 ft 533 kts 120°
2026-05-08 05:23 36.76655 -93.58287 39048 ft 534 kts 120°
2026-05-08 05:23 36.74050 -93.49622 39052 ft 534 kts 120°
2026-05-08 05:24 36.71457 -93.41007 39056 ft 534 kts 119°
2026-05-08 05:24 36.68847 -93.32345 39025 ft 534 kts 120°
2026-05-08 05:25 36.66221 -93.23692 39040 ft 534 kts 120°
2026-05-08 05:25 36.63589 -93.15047 39046 ft 534 kts 120°
2026-05-08 05:26 36.61399 -93.07861 39048 ft 534 kts 120°
2026-05-08 05:26 36.58334 -92.97824 39052 ft 534 kts 120°
2026-05-08 05:27 36.55681 -92.89188 39062 ft 534 kts 120°
2026-05-08 05:27 36.53014 -92.80562 39057 ft 535 kts 120°
2026-05-08 05:28 36.50795 -92.73383 39063 ft 535 kts 120°
2026-05-08 05:28 36.47692 -92.63352 39058 ft 536 kts 120°
2026-05-08 05:29 36.45464 -92.56163 39057 ft 538 kts 120°
2026-05-08 05:29 36.42766 -92.47496 39066 ft 538 kts 120°
2026-05-08 05:30 36.40056 -92.38833 39069 ft 538 kts 120°
2026-05-08 05:30 36.36904 -92.28778 39076 ft 538 kts 120°
2026-05-08 05:31 36.34626 -92.21525 39064 ft 539 kts 120°
2026-05-08 05:31 36.31913 -92.12923 39058 ft 540 kts 120°
2026-05-08 05:32 36.29173 -92.04253 39057 ft 540 kts 120°
2026-05-08 05:32 36.26428 -91.95591 39059 ft 540 kts 121°
2026-05-08 05:33 36.23676 -91.86925 39052 ft 541 kts 120°
2026-05-08 05:33 36.20929 -91.78311 39058 ft 543 kts 120°
2026-05-08 05:34 36.18143 -91.69622 39077 ft 543 kts 120°
2026-05-08 05:34 36.15361 -91.60950 39081 ft 542 kts 120°
2026-05-08 05:35 36.12569 -91.52289 39099 ft 542 kts 121°
2026-05-08 05:35 36.09671 -91.43687 39077 ft 541 kts 122°
2026-05-08 05:36 36.06716 -91.35202 39075 ft 541 kts 122°
2026-05-08 05:36 36.03755 -91.26678 39077 ft 542 kts 122°
2026-05-08 05:37 36.00792 -91.18085 39079 ft 542 kts 122°
2026-05-08 05:37 35.97842 -91.09513 39087 ft 543 kts 122°
2026-05-08 05:38 35.94898 -91.01004 39086 ft 543 kts 122°
2026-05-08 05:38 35.91922 -90.92431 39084 ft 544 kts 122°
2026-05-08 05:39 35.88933 -90.83863 39086 ft 544 kts 122°
2026-05-08 05:39 35.85938 -90.75298 39081 ft 544 kts 122°
2026-05-08 05:40 35.82931 -90.66733 39091 ft 545 kts 122°
2026-05-08 05:40 35.79932 -90.58221 39091 ft 545 kts 122°
2026-05-08 05:41 35.76910 -90.49652 39090 ft 546 kts 122°
2026-05-08 05:41 35.73885 -90.41080 39049 ft 546 kts 122°
2026-05-08 05:42 35.70851 -90.32517 39071 ft 546 kts 122°
2026-05-08 05:42 35.67830 -90.24005 39070 ft 547 kts 122°
2026-05-08 05:43 35.64779 -90.15429 39075 ft 547 kts 122°
2026-05-08 05:43 35.61716 -90.06867 39086 ft 547 kts 122°
2026-05-08 05:44 35.58646 -89.98309 39086 ft 547 kts 122°
2026-05-08 05:44 35.55591 -89.89808 39085 ft 548 kts 122°
2026-05-08 05:45 35.52503 -89.81245 39088 ft 548 kts 122°
2026-05-08 05:45 35.49414 -89.72693 39046 ft 548 kts 122°
2026-05-08 05:46 35.46320 -89.64147 39073 ft 548 kts 122°
2026-05-08 05:46 35.43240 -89.55658 39086 ft 548 kts 122°
2026-05-08 05:47 35.40134 -89.47126 39090 ft 548 kts 122°
2026-05-08 05:47 35.37018 -89.38609 39095 ft 548 kts 122°
2026-05-08 05:48 35.33902 -89.30102 39103 ft 548 kts 122°
2026-05-08 05:48 35.30804 -89.21645 39087 ft 548 kts 122°
2026-05-08 05:49 35.27676 -89.13139 39088 ft 548 kts 122°
2026-05-08 05:49 35.24538 -89.04645 39090 ft 548 kts 122°
2026-05-08 05:50 35.21418 -88.96223 39080 ft 548 kts 122°
2026-05-08 05:50 35.18263 -88.87736 39094 ft 547 kts 122°
2026-05-08 05:51 35.15112 -88.79265 39106 ft 548 kts 122°
2026-05-08 05:51 35.11955 -88.70801 39106 ft 548 kts 122°
2026-05-08 05:52 35.08790 -88.62332 39108 ft 548 kts 122°
2026-05-08 05:52 35.05638 -88.53934 39109 ft 548 kts 122°
2026-05-08 05:53 35.02459 -88.45482 39102 ft 548 kts 122°
2026-05-08 05:53 34.99266 -88.37031 39096 ft 549 kts 122°
2026-05-08 05:54 34.96071 -88.28583 39061 ft 549 kts 122°
2026-05-08 05:54 34.92896 -88.20191 39065 ft 549 kts 122°
2026-05-08 05:55 34.89691 -88.11743 39076 ft 549 kts 122°
2026-05-08 05:55 34.86474 -88.03308 39073 ft 549 kts 122°
2026-05-08 05:56 34.83248 -87.94875 39076 ft 550 kts 122°
2026-05-08 05:56 34.80018 -87.86453 39085 ft 550 kts 122°
2026-05-08 05:57 34.76806 -87.78065 39096 ft 550 kts 122°
2026-05-08 05:57 34.73566 -87.69639 39093 ft 550 kts 122°
2026-05-08 05:58 34.70315 -87.61219 39057 ft 550 kts 122°
2026-05-08 05:58 34.67058 -87.52822 39090 ft 549 kts 122°
2026-05-08 05:59 34.63859 -87.44383 39099 ft 553 kts 117°
2026-05-08 05:59 34.61835 -87.35361 39096 ft 560 kts 106°
2026-05-08 06:00 34.60162 -87.26124 39081 ft 560 kts 106°
2026-05-08 06:00 34.58463 -87.16906 39099 ft 560 kts 106°
2026-05-08 06:01 34.56746 -87.07694 39102 ft 559 kts 107°
2026-05-08 06:01 34.55129 -86.98524 39110 ft 560 kts 105°
2026-05-08 06:02 34.53256 -86.89412 39112 ft 556 kts 111°
2026-05-08 06:02 34.50961 -86.80449 39100 ft 555 kts 112°
2026-05-08 06:03 34.48610 -86.71528 39095 ft 555 kts 113°
2026-05-08 06:03 34.46274 -86.62677 39091 ft 555 kts 112°
2026-05-08 06:04 34.43941 -86.53759 39081 ft 555 kts 112°
2026-05-08 06:04 34.41604 -86.44850 39048 ft 555 kts 112°
2026-05-08 06:05 34.39247 -86.35936 38531 ft 561 kts 113°
2026-05-08 06:05 34.38048 -86.31433 38010 ft 562 kts 113°
2026-05-08 06:05 34.36852 -86.26934 37465 ft 561 kts 113°
2026-05-08 06:05 34.35661 -86.22452 36913 ft 560 kts 113°
2026-05-08 06:06 34.34485 -86.18020 36376 ft 559 kts 113°
2026-05-08 06:06 34.33305 -86.13566 35883 ft 556 kts 112°
2026-05-08 06:06 34.32133 -86.09102 35320 ft 555 kts 112°
2026-05-08 06:06 34.30985 -86.04664 34874 ft 551 kts 112°
2026-05-08 06:07 34.29851 -86.00241 34364 ft 549 kts 112°
2026-05-08 06:07 34.28726 -85.95852 33853 ft 546 kts 112°
2026-05-08 06:07 34.27601 -85.91482 33331 ft 541 kts 112°
2026-05-08 06:07 34.26482 -85.87160 32844 ft 537 kts 112°
2026-05-08 06:08 34.25381 -85.82931 32361 ft 532 kts 113°
2026-05-08 06:08 34.24269 -85.78685 31875 ft 528 kts 113°
2026-05-08 06:08 34.23164 -85.74479 31419 ft 523 kts 113°
2026-05-08 06:08 34.22068 -85.70312 30947 ft 518 kts 113°
2026-05-08 06:09 34.20986 -85.66195 30503 ft 514 kts 113°
2026-05-08 06:09 34.19905 -85.62089 30046 ft 509 kts 113°
2026-05-08 06:09 34.18835 -85.58033 29598 ft 503 kts 113°
2026-05-08 06:09 34.17776 -85.54036 29184 ft 497 kts 113°
2026-05-08 06:10 34.16743 -85.50133 28777 ft 492 kts 113°
2026-05-08 06:10 34.15708 -85.46221 28382 ft 487 kts 113°
2026-05-08 06:10 34.14683 -85.42350 28068 ft 481 kts 113°
2026-05-08 06:10 34.13679 -85.38545 27943 ft 472 kts 113°
2026-05-08 06:11 34.12679 -85.34740 27081 ft 481 kts 112°
2026-05-08 06:11 34.11682 -85.30915 26776 ft 476 kts 112°
2026-05-08 06:11 34.10699 -85.27104 26342 ft 473 kts 112°
2026-05-08 06:11 34.09726 -85.23322 25914 ft 471 kts 111°
2026-05-08 06:12 34.08771 -85.19608 25474 ft 469 kts 111°
2026-05-08 06:12 34.07801 -85.15863 25035 ft 467 kts 111°
2026-05-08 06:12 34.06827 -85.12134 24578 ft 465 kts 111°
2026-05-08 06:12 34.05731 -85.08489 24122 ft 459 kts 120°
2026-05-08 06:13 34.04184 -85.05193 23675 ft 447 kts 132°
2026-05-08 06:13 34.02228 -85.02348 23176 ft 433 kts 144°
2026-05-08 06:13 34.00017 -84.99969 22758 ft 422 kts 149°
2026-05-08 06:13 33.97806 -84.97687 22336 ft 417 kts 149°
2026-05-08 06:14 33.95619 -84.95419 21909 ft 412 kts 149°
2026-05-08 06:14 33.93486 -84.93198 21457 ft 409 kts 149°
2026-05-08 06:14 33.91343 -84.90966 21023 ft 405 kts 148°
2026-05-08 06:14 33.89220 -84.88755 20581 ft 402 kts 148°
2026-05-08 06:15 33.87113 -84.86567 20182 ft 398 kts 149°
2026-05-08 06:15 33.85039 -84.84415 20043 ft 389 kts 149°
2026-05-08 06:15 33.82988 -84.82296 20062 ft 388 kts 149°
2026-05-08 06:15 33.80934 -84.80185 20066 ft 388 kts 149°
2026-05-08 06:16 33.78909 -84.78104 20063 ft 388 kts 149°
2026-05-08 06:16 33.76858 -84.75991 20058 ft 388 kts 149°
2026-05-08 06:16 33.74805 -84.73875 20053 ft 389 kts 149°
2026-05-08 06:16 33.72694 -84.71890 20052 ft 380 kts 158°
2026-05-08 06:17 33.68182 -84.68692 20054 ft 376 kts 160°
2026-05-08 06:17 33.65927 -84.67101 20058 ft 376 kts 160°
2026-05-08 06:17 33.63669 -84.65511 20057 ft 376 kts 160°
2026-05-08 06:18 33.61413 -84.63923 20058 ft 376 kts 160°
2026-05-08 06:18 33.59188 -84.62356 20057 ft 376 kts 160°
2026-05-08 06:18 33.56963 -84.60682 20050 ft 385 kts 152°
2026-05-08 06:18 33.55094 -84.58312 19912 ft 398 kts 130°
2026-05-08 06:19 33.53938 -84.55264 19571 ft 407 kts 107°
2026-05-08 06:19 33.53655 -84.51901 19111 ft 406 kts 89°
2026-05-08 06:19 33.53673 -84.48523 18597 ft 404 kts 89°
2026-05-08 06:19 33.53688 -84.45163 18075 ft 402 kts 89°
2026-05-08 06:20 33.53695 -84.41830 17539 ft 399 kts 89°
2026-05-08 06:20 33.53698 -84.38568 17028 ft 395 kts 90°
2026-05-08 06:20 33.53700 -84.35291 16552 ft 391 kts 90°
2026-05-08 06:20 33.53697 -84.32043 16053 ft 388 kts 90°
2026-05-08 06:21 33.53695 -84.28825 15564 ft 384 kts 89°
2026-05-08 06:21 33.53697 -84.25637 15080 ft 381 kts 89°
2026-05-08 06:21 33.53698 -84.22472 14608 ft 378 kts 89°
2026-05-08 06:21 33.53699 -84.19336 14144 ft 375 kts 89°
2026-05-08 06:22 33.53698 -84.16233 13605 ft 370 kts 89°
2026-05-08 06:22 33.53696 -84.13160 12988 ft 366 kts 89°
2026-05-08 06:22 33.53689 -84.10210 12655 ft 352 kts 90°
2026-05-08 06:22 33.53688 -84.07247 11919 ft 356 kts 89°
2026-05-08 06:23 33.53703 -84.04293 11333 ft 353 kts 89°
2026-05-08 06:23 33.53734 -84.01371 10797 ft 349 kts 89°
2026-05-08 06:23 33.53780 -83.98485 10260 ft 344 kts 86°
2026-05-08 06:23 33.54313 -83.95736 9714 ft 335 kts 61°
2026-05-08 06:24 33.55634 -83.93541 9131 ft 318 kts 35°
2026-05-08 06:24 33.57468 -83.92254 8565 ft 297 kts
2026-05-08 06:24 33.59399 -83.92050 8013 ft 274 kts 342°
2026-05-08 06:24 33.61077 -83.92877 7424 ft 254 kts 315°
2026-05-08 06:25 33.62119 -83.94492 6834 ft 242 kts 288°
2026-05-08 06:25 33.62433 -83.96452 6212 ft 240 kts 271°
2026-05-08 06:25 33.62478 -83.98405 6044 ft 229 kts 271°
2026-05-08 06:25 33.62524 -84.00283 5915 ft 221 kts 271°
2026-05-08 06:26 33.62568 -84.02088 5788 ft 212 kts 272°
2026-05-08 06:26 33.62610 -84.03823 5661 ft 204 kts 272°
2026-05-08 06:26 33.62648 -84.05468 5537 ft 196 kts 272°
2026-05-08 06:26 33.62685 -84.07076 5409 ft 189 kts 272°
2026-05-08 06:27 33.62720 -84.08627 5285 ft 183 kts 272°
2026-05-08 06:27 33.62753 -84.10149 5161 ft 182 kts 272°
2026-05-08 06:27 33.62952 -84.11644 5040 ft 182 kts 282°
2026-05-08 06:27 33.63092 -84.13159 4917 ft 183 kts 274°
2026-05-08 06:28 33.63134 -84.14689 4796 ft 184 kts 273°
2026-05-08 06:28 33.63149 -84.16223 4666 ft 184 kts 272°
2026-05-08 06:28 33.63155 -84.17763 4556 ft 185 kts 272°
2026-05-08 06:28 33.63159 -84.19285 4430 ft 186 kts 272°
2026-05-08 06:29 33.63162 -84.20837 4347 ft 187 kts 272°
2026-05-08 06:29 33.63165 -84.22398 4152 ft 187 kts 272°
2026-05-08 06:29 33.63168 -84.23958 3917 ft 186 kts 273°
2026-05-08 06:29 33.63169 -84.25487 3686 ft 180 kts 274°
2026-05-08 06:30 33.63171 -84.26967 3447 ft 174 kts 274°
2026-05-08 06:30 33.63173 -84.28398 3220 ft 169 kts 275°
2026-05-08 06:30 33.63174 -84.29792 2986 ft 165 kts 275°
2026-05-08 06:30 33.63175 -84.31128 2789 ft 160 kts 275°
2026-05-08 06:31 33.63175 -84.32387 2580 ft 141 kts 276°
2026-05-08 06:31 33.63175 -84.33502 2397 ft 129 kts 276°
2026-05-08 06:31 33.63177 -84.34564 2230 ft 125 kts 277°
2026-05-08 06:31 33.63178 -84.35601 2067 ft 124 kts 276°
2026-05-08 06:32 33.63179 -84.36624 1907 ft 122 kts 276°
2026-05-08 06:32 33.63180 -84.37638 1737 ft 121 kts 275°
2026-05-08 06:32 33.63180 -84.38650 1548 ft 122 kts 272°
2026-05-08 06:32 33.63170 -84.39661 1384 ft 121 kts 271°
2026-05-08 06:33 33.63174 -84.40655 1238 ft 120 kts 271°
2026-05-08 06:33 33.63178 -84.41659 1089 ft 120 kts 271°
2026-05-08 06:33 33.63182 -84.42636 1008 ft 107 kts 270°
2026-05-08 06:33 33.63185 -84.43359 1008 ft 62 kts 269°
2026-05-08 06:34 33.63183 -84.43687 1007 ft 24 kts 270°
2026-05-08 06:34 33.63184 -84.43894 1004 ft 22 kts 271°
2026-05-08 06:34 33.63201 -84.44066 1005 ft 22 kts 285°
2026-05-08 06:34 33.63268 -84.44238 1006 ft 18 kts 314°
2026-05-08 06:35 33.63381 -84.44209 1006 ft 19 kts 33°
2026-05-08 06:35 33.63489 -84.44193 1007 ft 16 kts 359°
2026-05-08 06:35 33.63607 -84.44192 1007 ft 16 kts
2026-05-08 06:35 33.63667 -84.44088 1007 ft 16 kts 75°
2026-05-08 06:36 33.63776 -84.44049 1007 ft 19 kts 360°
2026-05-08 06:36 33.63901 -84.44049 1006 ft 13 kts 360°
2026-05-08 06:36 33.63981 -84.44050 1006 ft 13 kts 360°
2026-05-08 06:36 33.64075 -84.44050 1006 ft 12 kts 360°
2026-05-08 06:37 33.64164 -84.44050 1006 ft 15 kts
2026-05-08 06:37 33.64279 -84.44050 1006 ft 19 kts
2026-05-08 06:37 33.64391 -84.44039 1006 ft 17 kts 25°
2026-05-08 06:37 33.64437 -84.43904 1006 ft 20 kts 82°
2026-05-08 06:38 33.64457 -84.43724 1006 ft 24 kts 86°
2026-05-08 06:38 33.64459 -84.43534 1007 ft 22 kts 90°
2026-05-08 06:38 33.64460 -84.43330 1007 ft 26 kts 90°
2026-05-08 06:38 33.64455 -84.43173 1007 ft 12 kts 108°
2026-05-08 06:39 33.64371 -84.43130 1007 ft 16 kts 180°
2026-05-08 06:39 33.64270 -84.43130 1007 ft 10 kts 180°
2026-05-08 06:39 33.64232 -84.43166 1007 ft 7 kts 262°
2026-05-08 06:39 33.64232 -84.43183 1007 ft 2 kts 269°
2026-05-08 06:40 33.64232 -84.43190 1007 ft 0 kts 269°